SUMZM TGPY-TNCB

Flight info

Callsign SUMZM
Flight time 1h 45m
Altitude 24000
Route 120016N0614225W 115841N0614234W DCT RENUP DCT BAHIA DCT OGREK DCT LRS DCT SUGVI DCT BONAX BONAX1N
Aircraft PC12/L-SDFGRWY/S

Departure

Time 2026-05-08 20:15
Airport Maurice Bishop International Airport (TGPY)

Arrival

Time 2026-05-08 22:01
Airport Flamingo International Airport (TNCB)
Time Latitude Longitude Altitude Speed Heading
2026-05-08 20:02 12.00667 -61.78443 44 ft 0 kts 360°
2026-05-08 20:03 12.00668 -61.78443 44 ft 0 kts 360°
2026-05-08 20:11 12.00670 -61.78443 44 ft 4 kts 357°
2026-05-08 20:11 12.00640 -61.78487 43 ft 17 kts 200°
2026-05-08 20:11 12.00587 -61.78568 41 ft 16 kts 248°
2026-05-08 20:11 12.00500 -61.78596 39 ft 11 kts 181°
2026-05-08 20:12 12.00483 -61.78596 38 ft 0 kts 179°
2026-05-08 20:13 12.00477 -61.78595 38 ft 4 kts 169°
2026-05-08 20:14 12.00423 -61.78594 38 ft 11 kts 169°
2026-05-08 20:14 12.00407 -61.78568 38 ft 0 kts 89°
2026-05-08 20:14 12.00407 -61.78546 38 ft 19 kts 90°
2026-05-08 20:14 12.00406 -61.78238 32 ft 66 kts 87°
2026-05-08 20:15 12.00412 -61.77682 156 ft 86 kts 98°
2026-05-08 20:15 12.00363 -61.77027 435 ft 96 kts 101°
2026-05-08 20:15 12.00296 -61.76349 787 ft 95 kts 98°
2026-05-08 20:15 12.00197 -61.75688 1111 ft 92 kts 99°
2026-05-08 20:16 12.00291 -61.75083 1481 ft 92 kts 55°
2026-05-08 20:16 12.00882 -61.74791 1849 ft 103 kts
2026-05-08 20:16 12.01515 -61.75080 2233 ft 106 kts 313°
2026-05-08 20:16 12.01701 -61.75823 2632 ft 116 kts 261°
2026-05-08 20:17 12.01561 -61.76668 3013 ft 125 kts 261°
2026-05-08 20:17 12.01421 -61.77572 3378 ft 136 kts 262°
2026-05-08 20:17 12.01265 -61.78590 3748 ft 153 kts 262°
2026-05-08 20:17 12.01092 -61.79705 4122 ft 166 kts 261°
2026-05-08 20:18 12.00904 -61.80913 4502 ft 178 kts 262°
2026-05-08 20:18 12.00703 -61.82201 4872 ft 187 kts 262°
2026-05-08 20:18 12.00493 -61.83536 5234 ft 194 kts 262°
2026-05-08 20:18 12.00274 -61.84921 5603 ft 199 kts 262°
2026-05-08 20:19 12.00051 -61.86330 5971 ft 203 kts 262°
2026-05-08 20:19 11.99825 -61.87756 6341 ft 207 kts 262°
2026-05-08 20:19 11.99592 -61.89221 6686 ft 210 kts 262°
2026-05-08 20:19 11.99359 -61.90693 7037 ft 211 kts 262°
2026-05-08 20:20 11.99124 -61.92171 7388 ft 211 kts 262°
2026-05-08 20:20 11.98888 -61.93660 7746 ft 212 kts 262°
2026-05-08 20:20 11.98653 -61.95145 8104 ft 212 kts 262°
2026-05-08 20:20 11.98416 -61.96637 8471 ft 212 kts 262°
2026-05-08 20:21 11.98180 -61.98122 8836 ft 212 kts 262°
2026-05-08 20:21 11.97945 -61.99609 9211 ft 211 kts 262°
2026-05-08 20:21 11.97710 -62.01086 9585 ft 210 kts 262°
2026-05-08 20:21 11.97477 -62.02552 9950 ft 209 kts 262°
2026-05-08 20:22 11.97244 -62.04021 10287 ft 208 kts 262°
2026-05-08 20:22 11.97013 -62.05477 10628 ft 208 kts 262°
2026-05-08 20:22 11.96781 -62.06934 10981 ft 208 kts 263°
2026-05-08 20:22 11.96627 -62.07905 11217 ft 208 kts 263°
2026-05-08 20:23 11.96319 -62.09844 11692 ft 207 kts 263°
2026-05-08 20:23 11.96091 -62.11282 12050 ft 208 kts 264°
2026-05-08 20:23 11.95859 -62.12737 12412 ft 207 kts 263°
2026-05-08 20:23 11.95629 -62.14182 12784 ft 207 kts 264°
2026-05-08 20:24 11.95397 -62.15638 13155 ft 207 kts 263°
2026-05-08 20:24 11.95166 -62.17088 13533 ft 207 kts 264°
2026-05-08 20:24 11.94935 -62.18539 13896 ft 207 kts 263°
2026-05-08 20:24 11.94704 -62.19991 14232 ft 207 kts 264°
2026-05-08 20:25 11.94472 -62.21444 14574 ft 207 kts 264°
2026-05-08 20:25 11.94242 -62.22892 14920 ft 207 kts 263°
2026-05-08 20:25 11.94014 -62.24322 15264 ft 206 kts 264°
2026-05-08 20:25 11.93783 -62.25767 15619 ft 206 kts 264°
2026-05-08 20:26 11.93551 -62.27218 15976 ft 206 kts 264°
2026-05-08 20:26 11.93321 -62.28662 16338 ft 206 kts 264°
2026-05-08 20:26 11.93091 -62.30104 16704 ft 206 kts 264°
2026-05-08 20:26 11.92860 -62.31551 17076 ft 206 kts 264°
2026-05-08 20:27 11.92630 -62.32988 17452 ft 205 kts 264°
2026-05-08 20:27 11.92402 -62.34413 17826 ft 205 kts 264°
2026-05-08 20:27 11.92172 -62.35849 18210 ft 205 kts 264°
2026-05-08 20:27 11.91943 -62.37285 18538 ft 205 kts 264°
2026-05-08 20:28 11.91713 -62.38720 18870 ft 204 kts 264°
2026-05-08 20:28 11.91483 -62.40155 19215 ft 204 kts 264°
2026-05-08 20:28 11.91254 -62.41584 19557 ft 204 kts 264°
2026-05-08 20:28 11.91026 -62.43012 19908 ft 203 kts 264°
2026-05-08 20:29 11.90797 -62.44437 20258 ft 204 kts 264°
2026-05-08 20:29 11.90571 -62.45850 20610 ft 204 kts 264°
2026-05-08 20:29 11.90343 -62.47275 20968 ft 204 kts 264°
2026-05-08 20:29 11.90113 -62.48706 21330 ft 204 kts 264°
2026-05-08 20:30 11.89884 -62.50132 21700 ft 204 kts 264°
2026-05-08 20:30 11.89655 -62.51557 22067 ft 204 kts 264°
2026-05-08 20:30 11.89425 -62.52990 22452 ft 204 kts 264°
2026-05-08 20:30 11.89195 -62.54422 22839 ft 204 kts 263°
2026-05-08 20:31 11.88966 -62.55846 23215 ft 204 kts 264°
2026-05-08 20:31 11.88736 -62.57281 23593 ft 204 kts 264°
2026-05-08 20:31 11.88507 -62.58708 23896 ft 206 kts 264°
2026-05-08 20:31 11.88268 -62.60211 23923 ft 222 kts 263°
2026-05-08 20:32 11.88100 -62.61266 23929 ft 231 kts 264°
2026-05-08 20:32 11.87742 -62.63490 23934 ft 246 kts 263°
2026-05-08 20:32 11.87458 -62.65244 23936 ft 254 kts 262°
2026-05-08 20:32 11.87168 -62.67046 23936 ft 261 kts 263°
2026-05-08 20:33 11.86870 -62.68889 23932 ft 266 kts 263°
2026-05-08 20:33 11.86566 -62.70771 23935 ft 269 kts 263°
2026-05-08 20:33 11.86364 -62.72022 23931 ft 271 kts 263°
2026-05-08 20:33 11.86055 -62.73936 23931 ft 273 kts 263°
2026-05-08 20:34 11.85645 -62.76475 23934 ft 274 kts 263°
2026-05-08 20:34 11.85334 -62.78402 23930 ft 275 kts 263°
2026-05-08 20:34 11.84810 -62.81639 23933 ft 276 kts 263°
2026-05-08 20:35 11.84497 -62.83578 23930 ft 277 kts 263°
2026-05-08 20:35 11.84188 -62.85489 23932 ft 277 kts 263°
2026-05-08 20:35 11.83873 -62.87436 23933 ft 277 kts 263°
2026-05-08 20:35 11.83558 -62.89381 23928 ft 278 kts 262°
2026-05-08 20:36 11.83242 -62.91331 23933 ft 278 kts 263°
2026-05-08 20:36 11.82927 -62.93271 23932 ft 278 kts 263°
2026-05-08 20:36 11.82610 -62.95227 23933 ft 278 kts 263°
2026-05-08 20:36 11.82294 -62.97179 23930 ft 278 kts 263°
2026-05-08 20:37 11.81981 -62.99105 23928 ft 278 kts 263°
2026-05-08 20:37 11.81625 -63.01040 23929 ft 278 kts 258°
2026-05-08 20:37 11.81170 -63.02966 23930 ft 278 kts 259°
2026-05-08 20:37 11.80737 -63.04886 23930 ft 278 kts 259°
2026-05-08 20:38 11.80303 -63.06819 23932 ft 279 kts 259°
2026-05-08 20:38 11.79862 -63.08752 23929 ft 279 kts 259°
2026-05-08 20:38 11.79420 -63.10681 23930 ft 279 kts 259°
2026-05-08 20:38 11.78976 -63.12621 23930 ft 280 kts 259°
2026-05-08 20:39 11.78539 -63.14535 23927 ft 280 kts 259°
2026-05-08 20:39 11.78099 -63.16464 23928 ft 280 kts 259°
2026-05-08 20:39 11.77655 -63.18403 23931 ft 280 kts 259°
2026-05-08 20:39 11.77213 -63.20331 23928 ft 280 kts 259°
2026-05-08 20:40 11.76770 -63.22269 23928 ft 280 kts 259°
2026-05-08 20:40 11.76326 -63.24207 23931 ft 280 kts 259°
2026-05-08 20:40 11.75882 -63.26145 23929 ft 280 kts 259°
2026-05-08 20:40 11.75439 -63.28079 23930 ft 280 kts 259°
2026-05-08 20:41 11.74993 -63.30023 23926 ft 281 kts 259°
2026-05-08 20:41 11.74550 -63.31957 23925 ft 281 kts 259°
2026-05-08 20:41 11.74104 -63.33901 23924 ft 281 kts 259°
2026-05-08 20:41 11.73658 -63.35842 23921 ft 281 kts 259°
2026-05-08 20:42 11.73213 -63.37779 23929 ft 281 kts 259°
2026-05-08 20:42 11.72773 -63.39700 23930 ft 281 kts 259°
2026-05-08 20:42 11.72321 -63.41664 23922 ft 281 kts 259°
2026-05-08 20:42 11.71882 -63.43576 23926 ft 281 kts 259°
2026-05-08 20:43 11.71434 -63.45525 23925 ft 281 kts 259°
2026-05-08 20:43 11.70987 -63.47471 23925 ft 281 kts 259°
2026-05-08 20:43 11.70538 -63.49419 23924 ft 282 kts 259°
2026-05-08 20:43 11.70092 -63.51359 23924 ft 282 kts 259°
2026-05-08 20:44 11.69643 -63.53309 23922 ft 282 kts 259°
2026-05-08 20:44 11.69195 -63.55257 23924 ft 282 kts 259°
2026-05-08 20:44 11.68746 -63.57203 23922 ft 282 kts 259°
2026-05-08 20:44 11.68298 -63.59154 23922 ft 282 kts 259°
2026-05-08 20:45 11.67847 -63.61105 23923 ft 282 kts 259°
2026-05-08 20:45 11.67399 -63.63047 23923 ft 281 kts 259°
2026-05-08 20:45 11.66957 -63.64964 23923 ft 280 kts 259°
2026-05-08 20:45 11.66512 -63.66893 23920 ft 279 kts 259°
2026-05-08 20:46 11.66068 -63.68818 23920 ft 279 kts 259°
2026-05-08 20:46 11.65619 -63.70763 23920 ft 278 kts 259°
2026-05-08 20:46 11.65181 -63.72662 23919 ft 278 kts 259°
2026-05-08 20:46 11.64735 -63.74590 23920 ft 278 kts 259°
2026-05-08 20:47 11.64292 -63.76507 23918 ft 278 kts 259°
2026-05-08 20:47 11.63848 -63.78431 23916 ft 278 kts 259°
2026-05-08 20:47 11.63405 -63.80348 23916 ft 278 kts 259°
2026-05-08 20:47 11.62961 -63.82267 23915 ft 278 kts 259°
2026-05-08 20:48 11.62523 -63.84159 23918 ft 278 kts 259°
2026-05-08 20:48 11.62077 -63.86086 23917 ft 278 kts 259°
2026-05-08 20:48 11.61635 -63.87998 23913 ft 278 kts 259°
2026-05-08 20:48 11.61191 -63.89915 23915 ft 278 kts 259°
2026-05-08 20:49 11.60746 -63.91834 23914 ft 278 kts 259°
2026-05-08 20:49 11.60302 -63.93751 23917 ft 278 kts 259°
2026-05-08 20:49 11.59858 -63.95666 23916 ft 278 kts 259°
2026-05-08 20:49 11.59418 -63.97564 23910 ft 277 kts 259°
2026-05-08 20:50 11.58975 -63.99476 23911 ft 277 kts 259°
2026-05-08 20:50 11.58530 -64.01391 23915 ft 277 kts 259°
2026-05-08 20:50 11.58086 -64.03305 23911 ft 277 kts 259°
2026-05-08 20:50 11.57635 -64.05250 23911 ft 277 kts 259°
2026-05-08 20:51 11.57196 -64.07138 23913 ft 277 kts 259°
2026-05-08 20:51 11.56751 -64.09053 23909 ft 277 kts 259°
2026-05-08 20:51 11.56306 -64.10969 23909 ft 277 kts 259°
2026-05-08 20:51 11.55861 -64.12882 23904 ft 277 kts 259°
2026-05-08 20:52 11.55416 -64.14798 23911 ft 277 kts 259°
2026-05-08 20:52 11.55134 -64.16730 23906 ft 274 kts 272°
2026-05-08 20:52 11.55357 -64.18641 23908 ft 270 kts 285°
2026-05-08 20:52 11.55742 -64.20505 23908 ft 270 kts 285°
2026-05-08 20:53 11.56126 -64.22392 23904 ft 271 kts 285°
2026-05-08 20:53 11.56501 -64.24254 23906 ft 271 kts 285°
2026-05-08 20:53 11.56881 -64.26136 23907 ft 271 kts 285°
2026-05-08 20:53 11.57263 -64.28023 23904 ft 271 kts 285°
2026-05-08 20:54 11.57644 -64.29906 23907 ft 271 kts 285°
2026-05-08 20:54 11.58025 -64.31791 23906 ft 272 kts 285°
2026-05-08 20:54 11.58406 -64.33679 23901 ft 272 kts 285°
2026-05-08 20:54 11.58787 -64.35566 23903 ft 272 kts 285°
2026-05-08 20:55 11.59170 -64.37460 23905 ft 272 kts 285°
2026-05-08 20:55 11.59550 -64.39345 23906 ft 272 kts 285°
2026-05-08 20:55 11.59932 -64.41238 23905 ft 272 kts 285°
2026-05-08 20:55 11.60313 -64.43125 23906 ft 272 kts 285°
2026-05-08 20:56 11.60694 -64.45014 23901 ft 272 kts 285°
2026-05-08 20:56 11.61074 -64.46902 23905 ft 272 kts 285°
2026-05-08 20:56 11.61454 -64.48789 23904 ft 272 kts 285°
2026-05-08 20:56 11.61832 -64.50663 23903 ft 272 kts 285°
2026-05-08 20:57 11.62217 -64.52576 23903 ft 272 kts 285°
2026-05-08 20:57 11.62593 -64.54445 23903 ft 272 kts 285°
2026-05-08 20:57 11.62972 -64.56329 23904 ft 272 kts 285°
2026-05-08 20:57 11.63354 -64.58228 23899 ft 272 kts 285°
2026-05-08 20:58 11.63733 -64.60112 23903 ft 272 kts 285°
2026-05-08 20:58 11.64114 -64.62009 23907 ft 272 kts 285°
2026-05-08 20:58 11.64493 -64.63898 23904 ft 272 kts 285°
2026-05-08 20:58 11.64874 -64.65792 23909 ft 272 kts 285°
2026-05-08 20:59 11.65252 -64.67678 23905 ft 272 kts 285°
2026-05-08 20:59 11.65632 -64.69571 23903 ft 272 kts 285°
2026-05-08 20:59 11.66011 -64.71460 23904 ft 272 kts 285°
2026-05-08 20:59 11.66390 -64.73351 23900 ft 272 kts 285°
2026-05-08 21:00 11.66769 -64.75237 23903 ft 272 kts 285°
2026-05-08 21:00 11.67147 -64.77126 23903 ft 272 kts 285°
2026-05-08 21:00 11.67526 -64.79020 23904 ft 272 kts 285°
2026-05-08 21:00 11.67900 -64.80887 23903 ft 272 kts 285°
2026-05-08 21:01 11.68278 -64.82775 23905 ft 272 kts 285°
2026-05-08 21:01 11.68658 -64.84672 23909 ft 272 kts 285°
2026-05-08 21:01 11.69036 -64.86562 23904 ft 272 kts 286°
2026-05-08 21:01 11.69414 -64.88453 23901 ft 272 kts 286°
2026-05-08 21:02 11.69794 -64.90351 23901 ft 272 kts 286°
2026-05-08 21:02 11.70173 -64.92249 23901 ft 272 kts 286°
2026-05-08 21:02 11.70550 -64.94138 23902 ft 272 kts 286°
2026-05-08 21:02 11.70928 -64.96028 23898 ft 272 kts 286°
2026-05-08 21:03 11.71306 -64.97923 23905 ft 272 kts 286°
2026-05-08 21:03 11.71686 -64.99825 23907 ft 273 kts 286°
2026-05-08 21:03 11.72063 -65.01717 23898 ft 273 kts 286°
2026-05-08 21:03 11.72442 -65.03618 23900 ft 273 kts 286°
2026-05-08 21:04 11.72819 -65.05510 23906 ft 272 kts 286°
2026-05-08 21:04 11.73197 -65.07406 23904 ft 273 kts 286°
2026-05-08 21:04 11.73570 -65.09281 23904 ft 273 kts 286°
2026-05-08 21:04 11.73952 -65.11200 23902 ft 273 kts 286°
2026-05-08 21:05 11.74330 -65.13094 23909 ft 273 kts 286°
2026-05-08 21:05 11.74703 -65.14973 23909 ft 273 kts 286°
2026-05-08 21:05 11.75082 -65.16875 23907 ft 273 kts 286°
2026-05-08 21:05 11.75458 -65.18767 23905 ft 273 kts 286°
2026-05-08 21:06 11.75835 -65.20666 23901 ft 273 kts 286°
2026-05-08 21:06 11.76213 -65.22565 23901 ft 273 kts 286°
2026-05-08 21:06 11.76590 -65.24467 23902 ft 273 kts 286°
2026-05-08 21:06 11.76968 -65.26367 23906 ft 274 kts 286°
2026-05-08 21:07 11.77346 -65.28272 23909 ft 274 kts 286°
2026-05-08 21:07 11.77724 -65.30177 23908 ft 274 kts 286°
2026-05-08 21:07 11.78103 -65.32088 23906 ft 274 kts 286°
2026-05-08 21:07 11.78481 -65.33998 23901 ft 274 kts 286°
2026-05-08 21:08 11.78861 -65.35913 23901 ft 275 kts 286°
2026-05-08 21:08 11.79239 -65.37821 23904 ft 275 kts 286°
2026-05-08 21:08 11.79618 -65.39735 23908 ft 275 kts 286°
2026-05-08 21:08 11.79997 -65.41651 23904 ft 275 kts 286°
2026-05-08 21:09 11.80376 -65.43565 23903 ft 275 kts 286°
2026-05-08 21:09 11.80756 -65.45487 23907 ft 275 kts 286°
2026-05-08 21:09 11.81133 -65.47393 23907 ft 275 kts 286°
2026-05-08 21:09 11.81508 -65.49289 23900 ft 276 kts 286°
2026-05-08 21:10 11.81887 -65.51206 23905 ft 276 kts 286°
2026-05-08 21:10 11.82266 -65.53125 23907 ft 276 kts 286°
2026-05-08 21:10 11.82648 -65.55059 23905 ft 276 kts 286°
2026-05-08 21:10 11.83027 -65.56982 23904 ft 276 kts 286°
2026-05-08 21:11 11.83406 -65.58903 23905 ft 276 kts 286°
2026-05-08 21:11 11.83785 -65.60825 23903 ft 276 kts 286°
2026-05-08 21:11 11.84164 -65.62745 23904 ft 276 kts 286°
2026-05-08 21:11 11.84546 -65.64682 23901 ft 277 kts 286°
2026-05-08 21:12 11.84924 -65.66603 23898 ft 277 kts 286°
2026-05-08 21:12 11.85300 -65.68510 23906 ft 277 kts 286°
2026-05-08 21:12 11.85684 -65.70458 23908 ft 277 kts 286°
2026-05-08 21:12 11.86059 -65.72367 23907 ft 277 kts 286°
2026-05-08 21:13 11.86443 -65.74318 23903 ft 277 kts 286°
2026-05-08 21:13 11.86818 -65.76225 23906 ft 277 kts 286°
2026-05-08 21:13 11.87199 -65.78164 23907 ft 278 kts 286°
2026-05-08 21:13 11.87448 -65.80117 23903 ft 279 kts 279°
2026-05-08 21:14 11.87598 -65.82099 23907 ft 280 kts 279°
2026-05-08 21:14 11.87756 -65.84079 23903 ft 280 kts 279°
2026-05-08 21:14 11.87923 -65.86062 23903 ft 280 kts 279°
2026-05-08 21:14 11.88089 -65.88046 23911 ft 281 kts 279°
2026-05-08 21:15 11.88251 -65.90031 23906 ft 281 kts 279°
2026-05-08 21:15 11.88413 -65.92023 23907 ft 281 kts 279°
2026-05-08 21:15 11.88577 -65.94019 23903 ft 281 kts 279°
2026-05-08 21:15 11.88740 -65.96015 23903 ft 282 kts 279°
2026-05-08 21:16 11.88903 -65.98008 23901 ft 282 kts 279°
2026-05-08 21:16 11.89064 -65.99976 23905 ft 282 kts 279°
2026-05-08 21:16 11.89227 -66.01976 23903 ft 282 kts 279°
2026-05-08 21:16 11.89390 -66.03974 23897 ft 282 kts 279°
2026-05-08 21:17 11.89553 -66.05975 23901 ft 282 kts 279°
2026-05-08 21:17 11.89715 -66.07967 23903 ft 283 kts 279°
2026-05-08 21:17 11.89878 -66.09974 23900 ft 283 kts 279°
2026-05-08 21:17 11.90041 -66.11976 23902 ft 283 kts 279°
2026-05-08 21:18 11.90203 -66.13974 23902 ft 283 kts 279°
2026-05-08 21:18 11.90366 -66.15982 23905 ft 283 kts 279°
2026-05-08 21:18 11.90528 -66.17980 23903 ft 283 kts 279°
2026-05-08 21:18 11.90690 -66.19990 23901 ft 283 kts 279°
2026-05-08 21:19 11.90852 -66.21995 23906 ft 283 kts 279°
2026-05-08 21:19 11.91013 -66.23981 23904 ft 283 kts 279°
2026-05-08 21:19 11.91174 -66.25984 23901 ft 283 kts 279°
2026-05-08 21:19 11.91336 -66.27988 23902 ft 284 kts 279°
2026-05-08 21:20 11.91499 -66.30003 23904 ft 284 kts 279°
2026-05-08 21:20 11.91605 -66.31330 23902 ft 284 kts 279°
2026-05-08 21:20 11.91767 -66.33339 23903 ft 284 kts 279°
2026-05-08 21:20 11.91982 -66.36013 23899 ft 284 kts 280°
2026-05-08 21:21 11.92091 -66.37368 23900 ft 284 kts 280°
2026-05-08 21:21 11.92252 -66.39378 23897 ft 285 kts 280°
2026-05-08 21:21 11.92414 -66.41396 23899 ft 285 kts 279°
2026-05-08 21:21 11.92575 -66.43410 23899 ft 285 kts 280°
2026-05-08 21:22 11.92737 -66.45429 23899 ft 285 kts 279°
2026-05-08 21:22 11.92898 -66.47443 23902 ft 285 kts 279°
2026-05-08 21:22 11.93059 -66.49455 23899 ft 285 kts 280°
2026-05-08 21:22 11.93220 -66.51480 23899 ft 285 kts 279°
2026-05-08 21:23 11.93381 -66.53495 23900 ft 285 kts 279°
2026-05-08 21:23 11.93540 -66.55495 23901 ft 285 kts 279°
2026-05-08 21:23 11.93703 -66.57541 23903 ft 285 kts 279°
2026-05-08 21:23 11.93864 -66.59561 23900 ft 286 kts 280°
2026-05-08 21:24 11.94025 -66.61583 23900 ft 286 kts 280°
2026-05-08 21:24 11.94183 -66.63577 23900 ft 286 kts 279°
2026-05-08 21:24 11.94343 -66.65598 23898 ft 286 kts 279°
2026-05-08 21:24 11.94473 -66.67620 23899 ft 286 kts 275°
2026-05-08 21:25 11.94483 -66.69660 23899 ft 287 kts 275°
2026-05-08 21:25 11.94504 -66.71695 23900 ft 287 kts 275°
2026-05-08 21:25 11.94531 -66.73737 23900 ft 287 kts 276°
2026-05-08 21:25 11.94552 -66.75774 23902 ft 288 kts 275°
2026-05-08 21:26 11.94570 -66.77823 23902 ft 288 kts 275°
2026-05-08 21:26 11.94590 -66.79863 23900 ft 288 kts 275°
2026-05-08 21:26 11.94610 -66.81907 23903 ft 288 kts 275°
2026-05-08 21:26 11.94631 -66.83956 23900 ft 288 kts 275°
2026-05-08 21:27 11.94650 -66.86000 23900 ft 288 kts 275°
2026-05-08 21:27 11.94670 -66.88028 23898 ft 288 kts 275°
2026-05-08 21:27 11.94689 -66.90073 23896 ft 288 kts 275°
2026-05-08 21:27 11.94708 -66.92129 23897 ft 288 kts 275°
2026-05-08 21:28 11.94727 -66.94175 23898 ft 289 kts 275°
2026-05-08 21:28 11.94746 -66.96229 23897 ft 288 kts 275°
2026-05-08 21:28 11.94765 -66.98282 23898 ft 289 kts 275°
2026-05-08 21:28 11.94784 -67.00333 23898 ft 289 kts 275°
2026-05-08 21:29 11.94802 -67.02360 23897 ft 289 kts 275°
2026-05-08 21:29 11.94821 -67.04436 23898 ft 289 kts 275°
2026-05-08 21:29 11.94839 -67.06464 23899 ft 289 kts 275°
2026-05-08 21:29 11.94857 -67.08510 23897 ft 288 kts 275°
2026-05-08 21:30 11.94875 -67.10557 23898 ft 289 kts 275°
2026-05-08 21:30 11.94892 -67.12603 23898 ft 289 kts 275°
2026-05-08 21:30 11.94910 -67.14651 23899 ft 289 kts 275°
2026-05-08 21:30 11.94928 -67.16709 23898 ft 289 kts 275°
2026-05-08 21:31 11.94945 -67.18761 23900 ft 289 kts 275°
2026-05-08 21:31 11.94962 -67.20806 23900 ft 289 kts 275°
2026-05-08 21:31 11.94979 -67.22868 23898 ft 289 kts 275°
2026-05-08 21:31 11.94996 -67.24921 23898 ft 289 kts 275°
2026-05-08 21:32 11.95013 -67.26960 23896 ft 289 kts 275°
2026-05-08 21:32 11.95029 -67.29027 23896 ft 289 kts 275°
2026-05-08 21:32 11.95046 -67.31048 23896 ft 289 kts 275°
2026-05-08 21:32 11.95062 -67.33103 23896 ft 289 kts 275°
2026-05-08 21:33 11.95078 -67.35149 23897 ft 289 kts 275°
2026-05-08 21:33 11.95094 -67.37207 23897 ft 289 kts 275°
2026-05-08 21:33 11.95110 -67.39260 23895 ft 289 kts 275°
2026-05-08 21:33 11.95126 -67.41314 23897 ft 289 kts 275°
2026-05-08 21:34 11.95351 -67.43324 23897 ft 282 kts 290°
2026-05-08 21:34 11.95936 -67.45242 23664 ft 286 kts 294°
2026-05-08 21:34 11.96557 -67.47178 23364 ft 285 kts 294°
2026-05-08 21:34 11.97150 -67.49062 23018 ft 274 kts 294°
2026-05-08 21:35 11.97719 -67.50886 22679 ft 264 kts 294°
2026-05-08 21:35 11.98267 -67.52628 22352 ft 257 kts 294°
2026-05-08 21:35 11.98812 -67.54359 22020 ft 249 kts 294°
2026-05-08 21:35 11.99329 -67.56000 21697 ft 241 kts 294°
2026-05-08 21:36 11.99831 -67.57599 21376 ft 233 kts 294°
2026-05-08 21:36 12.00319 -67.59152 21063 ft 226 kts 293°
2026-05-08 21:36 12.00794 -67.60663 20746 ft 221 kts 293°
2026-05-08 21:36 12.01258 -67.62139 20434 ft 216 kts 293°
2026-05-08 21:37 12.01734 -67.63652 20134 ft 230 kts 292°
2026-05-08 21:37 12.02236 -67.65249 19842 ft 242 kts 292°
2026-05-08 21:37 12.02757 -67.66916 19547 ft 251 kts 291°
2026-05-08 21:37 12.03287 -67.68610 19257 ft 256 kts 291°
2026-05-08 21:38 12.03834 -67.70357 18964 ft 260 kts 291°
2026-05-08 21:38 12.04389 -67.72126 18673 ft 262 kts 291°
2026-05-08 21:38 12.04948 -67.73906 18388 ft 264 kts 290°
2026-05-08 21:38 12.05508 -67.75691 18083 ft 264 kts 290°
2026-05-08 21:39 12.06069 -67.77482 17754 ft 264 kts 290°
2026-05-08 21:39 12.06628 -67.79265 17427 ft 264 kts 291°
2026-05-08 21:39 12.07189 -67.81058 17099 ft 264 kts 290°
2026-05-08 21:39 12.07537 -67.82879 16778 ft 265 kts 274°
2026-05-08 21:40 12.07348 -67.84750 16472 ft 266 kts 257°
2026-05-08 21:40 12.06854 -67.86574 16156 ft 265 kts 255°
2026-05-08 21:40 12.06361 -67.88393 15836 ft 265 kts 256°
2026-05-08 21:41 12.05400 -67.92023 15219 ft 264 kts 256°
2026-05-08 21:41 12.04915 -67.93833 14915 ft 263 kts 256°
2026-05-08 21:41 12.04431 -67.95634 14615 ft 263 kts 256°
2026-05-08 21:41 12.03956 -67.97407 14320 ft 262 kts 256°
2026-05-08 21:42 12.03474 -67.99205 14025 ft 261 kts 256°
2026-05-08 21:42 12.03001 -68.00970 13733 ft 260 kts 256°
2026-05-08 21:42 12.02523 -68.02752 13409 ft 260 kts 256°
2026-05-08 21:42 12.02045 -68.04531 13080 ft 259 kts 256°
2026-05-08 21:43 12.01570 -68.06299 12753 ft 258 kts 255°
2026-05-08 21:43 12.01094 -68.08069 12429 ft 258 kts 255°
2026-05-08 21:43 12.00622 -68.09830 12112 ft 257 kts 255°
2026-05-08 21:43 12.00148 -68.11593 11798 ft 257 kts 255°
2026-05-08 21:44 11.99674 -68.13356 11484 ft 257 kts 255°
2026-05-08 21:44 11.99207 -68.15095 11178 ft 253 kts 255°
2026-05-08 21:44 11.98754 -68.16784 10861 ft 234 kts 255°
2026-05-08 21:44 11.98343 -68.18312 10560 ft 220 kts 255°
2026-05-08 21:45 11.97946 -68.19785 10249 ft 210 kts 254°
2026-05-08 21:45 11.97566 -68.21199 9947 ft 203 kts 254°
2026-05-08 21:45 11.97197 -68.22569 9642 ft 197 kts 253°
2026-05-08 21:45 11.96836 -68.23909 9311 ft 193 kts 253°
2026-05-08 21:46 11.96486 -68.25208 8989 ft 189 kts 253°
2026-05-08 21:46 11.96139 -68.26495 8666 ft 186 kts 253°
2026-05-08 21:46 11.95797 -68.27763 8348 ft 184 kts 253°
2026-05-08 21:46 11.95459 -68.29016 8033 ft 182 kts 253°
2026-05-08 21:47 11.95127 -68.30258 7717 ft 179 kts 256°
2026-05-08 21:47 11.95185 -68.31497 7407 ft 178 kts 283°
2026-05-08 21:47 11.95501 -68.32713 7108 ft 177 kts 284°
2026-05-08 21:47 11.95779 -68.33940 6803 ft 177 kts 281°
2026-05-08 21:48 11.96019 -68.35173 6504 ft 177 kts 280°
2026-05-08 21:48 11.96252 -68.36400 6199 ft 175 kts 280°
2026-05-08 21:48 11.96486 -68.37616 5881 ft 174 kts 280°
2026-05-08 21:48 11.96720 -68.38831 5566 ft 175 kts 279°
2026-05-08 21:49 11.96955 -68.40049 5247 ft 175 kts 280°
2026-05-08 21:49 11.97190 -68.41269 4944 ft 175 kts 280°
2026-05-08 21:49 11.97423 -68.42482 4636 ft 174 kts 280°
2026-05-08 21:49 11.97654 -68.43687 4316 ft 173 kts 281°
2026-05-08 21:50 11.97885 -68.44889 3999 ft 172 kts 281°
2026-05-08 21:50 11.98285 -68.46014 3680 ft 170 kts 306°
2026-05-08 21:50 11.99107 -68.46849 3369 ft 165 kts 332°
2026-05-08 21:50 12.00165 -68.47249 3089 ft 156 kts 359°
2026-05-08 21:51 12.01191 -68.47254 2914 ft 146 kts
2026-05-08 21:51 12.02188 -68.47223 2744 ft 141 kts
2026-05-08 21:51 12.03164 -68.47193 2575 ft 139 kts
2026-05-08 21:51 12.04142 -68.47161 2513 ft 149 kts
2026-05-08 21:52 12.05259 -68.47123 2509 ft 171 kts
2026-05-08 21:52 12.06503 -68.47084 2516 ft 188 kts
2026-05-08 21:52 12.07879 -68.47041 2512 ft 204 kts
2026-05-08 21:52 12.09335 -68.46997 2503 ft 214 kts
2026-05-08 21:53 12.10755 -68.46767 2507 ft 190 kts 24°
2026-05-08 21:53 12.11808 -68.46209 2488 ft 153 kts 40°
2026-05-08 21:53 12.12507 -68.45567 2495 ft 119 kts 53°
2026-05-08 21:53 12.12945 -68.44964 2498 ft 100 kts 62°
2026-05-08 21:54 12.13261 -68.44325 2497 ft 101 kts 70°
2026-05-08 21:54 12.13470 -68.43634 2502 ft 105 kts 77°
2026-05-08 21:54 12.13562 -68.42890 2499 ft 105 kts 86°
2026-05-08 21:54 12.13545 -68.42149 2503 ft 104 kts 90°
2026-05-08 21:55 12.13522 -68.41411 2496 ft 105 kts 90°
2026-05-08 21:55 12.13498 -68.40627 2329 ft 110 kts 91°
2026-05-08 21:55 12.13474 -68.39853 2188 ft 109 kts 90°
2026-05-08 21:56 12.13428 -68.38311 1996 ft 104 kts 91°
2026-05-08 21:56 12.13407 -68.37567 1858 ft 106 kts 93°
2026-05-08 21:56 12.13384 -68.36811 1712 ft 105 kts 92°
2026-05-08 21:56 12.13364 -68.36124 1562 ft 88 kts 92°
2026-05-08 21:57 12.13346 -68.35535 1410 ft 81 kts 92°
2026-05-08 21:57 12.13329 -68.34960 1256 ft 81 kts 89°
2026-05-08 21:57 12.13312 -68.34387 1132 ft 81 kts 89°
2026-05-08 21:57 12.13297 -68.33845 1011 ft 74 kts 90°
2026-05-08 21:58 12.13278 -68.33338 969 ft 71 kts 93°
2026-05-08 21:58 12.13262 -68.32828 922 ft 72 kts 94°
2026-05-08 21:58 12.13235 -68.32310 816 ft 72 kts 93°
2026-05-08 21:58 12.13218 -68.31798 759 ft 71 kts 94°
2026-05-08 21:59 12.13224 -68.31288 661 ft 71 kts 92°
2026-05-08 21:59 12.13204 -68.30784 557 ft 71 kts 93°
2026-05-08 21:59 12.13148 -68.30269 425 ft 72 kts 89°
2026-05-08 21:59 12.13149 -68.29769 339 ft 71 kts 89°
2026-05-08 22:00 12.13137 -68.29264 262 ft 69 kts 89°
2026-05-08 22:00 12.13135 -68.28785 162 ft 66 kts 89°
2026-05-08 22:00 12.13123 -68.28327 73 ft 64 kts 89°
2026-05-08 22:00 12.13112 -68.27890 51 ft 58 kts 89°
2026-05-08 22:01 12.13104 -68.27549 24 ft 40 kts 90°
2026-05-08 22:01 12.13097 -68.27318 24 ft 23 kts 91°
2026-05-08 22:01 12.13093 -68.27168 24 ft 18 kts 91°
2026-05-08 22:01 12.13074 -68.27052 25 ft 12 kts 116°
2026-05-08 22:02 12.13098 -68.27051 26 ft 16 kts 267°
2026-05-08 22:02 12.13096 -68.27228 28 ft 32 kts 274°
2026-05-08 22:02 12.13102 -68.27472 24 ft 37 kts 273°
2026-05-08 22:02 12.13149 -68.27604 25 ft 14 kts
2026-05-08 22:03 12.13201 -68.27629 25 ft 1 kts 272°
2026-05-08 22:03 12.13201 -68.27630 25 ft 0 kts 272°
2026-05-08 22:03 12.13201 -68.27631 25 ft 1 kts 272°
2026-05-08 22:03 12.13202 -68.27668 25 ft 10 kts 271°
2026-05-08 22:04 12.13218 -68.27735 26 ft 11 kts 354°
2026-05-08 22:04 12.13256 -68.27721 26 ft 3 kts 64°
2026-05-08 22:04 12.13256 -68.27719 25 ft 9 kts 78°
2026-05-08 22:04 12.13254 -68.27725 24 ft 5 kts 113°
2026-05-08 22:05 12.13253 -68.27716 24 ft 0 kts 82°
2026-05-08 22:05 12.13253 -68.27709 24 ft 0 kts 92°